| time (UTC) | temp F | wind direction | speed knots | gust knots | rain 1hr in | rain 24hr in | rain mn in | humidity % | barometer mb |
| 20260504174525 | 70 | 213 | 7.0 | 16.5 | 0.00 | 0.00 | 0.00 | 31 | 1008.2 |
| 20260504173524 | 69 | 221 | 13.0 | 13.0 | 0.00 | 0.00 | 0.00 | 32 | 1008.3 |
| 20260504172524 | 70 | 216 | 7.0 | 13.9 | 0.00 | 0.00 | 0.00 | 32 | 1008.2 |
| 20260504171523 | 69 | 224 | 5.2 | 7.8 | 0.00 | 0.00 | 0.00 | 32 | 1008.4 |
| 20260504170521 | 69 | 238 | 5.2 | 11.3 | 0.00 | 0.00 | 0.00 | 33 | 1008.7 |
| 20260504150500 | 65 | 199 | 6.1 | 18.2 | 0.00 | 0.00 | 0.00 | 34 | 1009.8 |
| 20260504140452 | 63 | 196 | 4.3 | 4.3 | 0.00 | 0.00 | 0.00 | 38 | 1010.3 |
| 20260504130435 | 58 | 192 | 3.5 | 7.8 | 0.00 | 0.00 | 0.00 | 44 | 1011.1 |
| 20260504110409 | 44 | 102 | 1.7 | 3.5 | 0.00 | 0.00 | 0.00 | 79 | 1011.2 |
| 20260504100354 | 41 | 81 | 2.6 | 2.6 | 0.00 | 0.00 | 0.00 | 75 | 1010.8 |
| 20260504081337 | 45 | 111 | 2.6 | 2.6 | 0.00 | 0.00 | 0.00 | 63 | 1010.3 |
| 20260504080336 | 45 | 103 | 2.6 | 3.5 | 0.00 | 0.00 | 0.00 | 63 | 1010.3 |
| 20260504070332 | 44 | 95 | 1.7 | 2.6 | 0.00 | 0.00 | 0.00 | 67 | 1010.3 |
| 20260504050311 | 40 | 96 | 1.7 | 1.7 | 0.00 | 0.00 | 0.00 | 75 | 1010.2 |
| 20260504045308 | 40 | 96 | 1.7 | 1.7 | 0.00 | 0.00 | 0.00 | 75 | 1010.5 |
| 20260504044303 | 40 | 105 | 1.7 | 2.6 | 0.00 | 0.00 | 0.00 | 74 | 1010.5 |
| 20260504043303 | 42 | 86 | 1.7 | 2.6 | 0.00 | 0.00 | 0.00 | 70 | 1010.5 |
| 20260504042304 | 42 | 86 | 1.7 | 2.6 | 0.00 | 0.00 | 0.00 | 70 | 1010.4 |
| 20260504041300 | 42 | 86 | 1.7 | 2.6 | 0.00 | 0.00 | 0.00 | 70 | 1010.5 |
| 20260504040300 | 42 | 88 | 0.9 | 1.7 | 0.00 | 0.00 | 0.00 | 69 | 1010.4 |
| 20260504035259 | 42 | 89 | 0.9 | 1.7 | 0.00 | 0.00 | 0.00 | 68 | 1010.3 |
| 20260504034254 | 42 | 95 | 1.7 | 1.7 | 0.00 | 0.00 | 0.00 | 68 | 1010.2 |
| 20260504033254 | 43 | 114 | 1.7 | 1.7 | 0.00 | 0.00 | 0.00 | 68 | 1010.4 |
| 20260504032254 | 43 | 94 | 1.7 | 1.7 | 0.00 | 0.00 | 0.00 | 66 | 1010.2 |
| 20260504031254 | 43 | 103 | 1.7 | 1.7 | 0.00 | 0.00 | 0.00 | 66 | 1010.1 |
| 20260504030254 | 44 | 112 | 1.7 | 1.7 | 0.00 | 0.00 | 0.00 | 65 | 1010.2 |
| 20260504025253 | 44 | 105 | 0.9 | 1.7 | 0.00 | 0.00 | 0.00 | 63 | 1010.3 |
| 20260504024252 | 44 | 103 | 1.7 | 1.7 | 0.00 | 0.00 | 0.00 | 63 | 1010.1 |
| 20260504023251 | 45 | 116 | 1.7 | 1.7 | 0.00 | 0.00 | 0.00 | 59 | 1010.0 |
| 20260504022249 | 45 | 114 | 1.7 | 1.7 | 0.00 | 0.00 | 0.00 | 60 | 1010.2 |
| 20260504021244 | 45 | 105 | 1.7 | 1.7 | 0.00 | 0.00 | 0.00 | 59 | 1010.1 |
| 20260504020243 | 46 | 114 | 1.7 | 1.7 | 0.00 | 0.00 | 0.00 | 58 | 1010.0 |
| 20260504015241 | 46 | 107 | 1.7 | 1.7 | 0.00 | 0.00 | 0.00 | 60 | 1009.9 |
| 20260504014240 | 46 | 106 | 1.7 | 1.7 | 0.00 | 0.00 | 0.00 | 58 | 1009.9 |
| 20260504013235 | 47 | 100 | 1.7 | 1.7 | 0.00 | 0.00 | 0.00 | 57 | 1009.8 |
| 20260504012235 | 48 | 108 | 1.7 | 1.7 | 0.00 | 0.00 | 0.00 | 56 | 1009.7 |
| 20260504011234 | 48 | 115 | 1.7 | 2.6 | 0.00 | 0.00 | 0.00 | 55 | 1009.6 |
| 20260504010232 | 47 | 94 | 1.7 | 1.7 | 0.00 | 0.00 | 0.00 | 56 | 1009.5 |
| 20260504005232 | 47 | 92 | 1.7 | 1.7 | 0.00 | 0.00 | 0.00 | 54 | 1009.4 |
| 20260504004232 | 47 | 78 | 1.7 | 1.7 | 0.00 | 0.00 | 0.00 | 53 | 1009.0 |
| 20260504003232 | 47 | 109 | 1.7 | 1.7 | 0.00 | 0.00 | 0.00 | 54 | 1009.1 |
| 20260504002231 | 52 | 78 | 1.7 | 1.7 | 0.00 | 0.00 | 0.00 | 39 | 1008.9 |
| 20260504001231 | 52 | 78 | 1.7 | 1.7 | 0.00 | 0.00 | 0.00 | 39 | 1008.7 |
| 20260504000230 | 52 | 78 | 1.7 | 1.7 | 0.00 | 0.00 | 0.00 | 39 | 1008.6 |
| 20260503235226 | 52 | 78 | 1.7 | 1.7 | 0.00 | 0.00 | 0.00 | 39 | 1008.5 |
| 20260503234221 | 53 | 103 | 1.7 | 1.7 | 0.00 | 0.00 | 0.00 | 37 | 1008.4 |
| 20260503233219 | 53 | 103 | 1.7 | 1.7 | 0.00 | 0.00 | 0.00 | 36 | 1008.3 |
| 20260503232219 | 54 | 126 | 3.5 | 3.5 | 0.00 | 0.00 | 0.00 | 35 | 1008.4 |
| 20260503231214 | 55 | 173 | 0.9 | 4.3 | 0.00 | 0.00 | 0.00 | 35 | 1008.2 |
| 20260503230214 | 56 | 191 | 0.9 | 3.5 | 0.00 | 0.00 | 0.00 | 33 | 1008.2 |
| 20260503225211 | 56 | 48 | 1.7 | 5.2 | 0.00 | 0.00 | 0.00 | 32 | 1008.1 |
| 20260503224206 | 57 | 9 | 2.6 | 9.6 | 0.00 | 0.00 | 0.00 | 32 | 1008.0 |
| 20260503223201 | 57 | 23 | 6.1 | 7.0 | 0.00 | 0.00 | 0.00 | 32 | 1008.2 |
| 20260503222155 | 56 | 70 | 3.5 | 6.1 | 0.00 | 0.00 | 0.00 | 34 | 1007.9 |
| 20260503221150 | 57 | 33 | 2.6 | 2.6 | 0.00 | 0.00 | 0.00 | 34 | 1007.7 |
| 20260503220149 | 56 | 23 | 1.7 | 2.6 | 0.00 | 0.00 | 0.00 | 34 | 1008.0 |
| 20260503215149 | 57 | 12 | 3.5 | 3.5 | 0.00 | 0.00 | 0.00 | 34 | 1008.0 |
| 20260503214149 | 57 | 235 | 4.3 | 13.0 | 0.00 | 0.00 | 0.00 | 33 | 1008.0 |
| 20260503213145 | 56 | 19 | 2.6 | 7.8 | 0.00 | 0.00 | 0.00 | 36 | 1008.1 |
| 20260503212140 | 55 | 21 | 4.3 | 6.1 | 0.00 | 0.00 | 0.00 | 35 | 1008.0 |
| 20260503211138 | 56 | 143 | 5.2 | 5.2 | 0.00 | 0.00 | 0.00 | 35 | 1008.2 |
| 20260503210138 | 53 | 20 | 3.5 | 5.2 | 0.00 | 0.00 | 0.00 | 37 | 1007.8 |
| 20260503205135 | 55 | 15 | 3.5 | 12.2 | 0.00 | 0.00 | 0.00 | 35 | 1007.9 |
| 20260503204135 | 55 | 26 | 3.5 | 5.2 | 0.00 | 0.00 | 0.00 | 36 | 1008.0 |
| 20260503203135 | 53 | 40 | 3.5 | 7.0 | 0.00 | 0.00 | 0.00 | 37 | 1007.9 |
| 20260503202130 | 54 | 112 | 3.5 | 6.1 | 0.00 | 0.00 | 0.00 | 36 | 1007.7 |
| 20260503201125 | 53 | 75 | 3.5 | 10.4 | 0.00 | 0.00 | 0.00 | 37 | 1008.0 |
| 20260503200124 | 54 | 60 | 4.3 | 7.8 | 0.00 | 0.00 | 0.00 | 37 | 1007.9 |
| 20260503195123 | 56 | 18 | 5.2 | 7.8 | 0.00 | 0.00 | 0.00 | 35 | 1007.7 |
| 20260503194121 | 55 | 348 | 5.2 | 7.0 | 0.00 | 0.00 | 0.00 | 37 | 1007.9 |
| 20260503193120 | 54 | 21 | 3.5 | 13.0 | 0.00 | 0.00 | 0.00 | 36 | 1007.8 |
| 20260503192117 | 55 | 304 | 4.3 | 7.8 | 0.00 | 0.00 | 0.00 | 35 | 1007.7 |
| 20260503191117 | 53 | 354 | 3.5 | 6.1 | 0.00 | 0.00 | 0.00 | 37 | 1007.8 |
| 20260503190117 | 54 | 347 | 5.2 | 7.8 | 0.00 | 0.00 | 0.00 | 35 | 1007.7 |
| 20260503185114 | 54 | 171 | 3.5 | 13.0 | 0.00 | 0.00 | 0.00 | 37 | 1007.7 |
| 20260503184112 | 54 | 49 | 0.0 | 7.0 | 0.00 | 0.00 | 0.00 | 37 | 1007.9 |
| 20260503183112 | 55 | 255 | 4.3 | 7.8 | 0.00 | 0.00 | 0.00 | 35 | 1008.0 |
| 20260503182108 | 55 | 22 | 2.6 | 7.0 | 0.00 | 0.00 | 0.00 | 36 | 1007.6 |
| 20260503181107 | 55 | 334 | 5.2 | 7.8 | 0.00 | 0.00 | 0.00 | 35 | 1007.6 |